TimeEST,TemperatureF,Dew PointF,Humidity,Sea Level PressureIn,VisibilityMPH,Wind Direction,Wind SpeedMPH,Gust SpeedMPH,PrecipitationIn,Events,Conditions,WindDirDegrees,DateUTC
12:53 AM,33.1,28.9,85,29.88,8.0,SE,9.2,-,N/A,,Overcast,130,2003-01-05 05:53:00
1:40 AM,33.8,30.2,87,29.84,8.0,SE,4.6,-,N/A,,Overcast,130,2003-01-05 06:40:00
1:53 AM,33.1,30.0,89,29.86,9.0,ESE,4.6,-,N/A,,Overcast,120,2003-01-05 06:53:00
2:53 AM,33.1,30.0,89,29.86,8.0,ESE,6.9,-,N/A,,Overcast,110,2003-01-05 07:53:00
3:45 AM,33.8,30.2,87,29.84,2.0,ESE,5.8,-,0.01,Snow,Light Snow,120,2003-01-05 08:45:00
3:53 AM,32.0,30.0,92,29.86,2.5,SE,4.6,-,0.01,Snow,Light Snow,130,2003-01-05 08:53:00
4:04 AM,32.0,30.2,93,29.83,1.5,ESE,6.9,-,0.00,Snow,Light Snow,110,2003-01-05 09:04:00
4:21 AM,32.0,30.2,93,29.83,3.0,ESE,5.8,-,0.01,Snow,Light Snow,120,2003-01-05 09:21:00
4:29 AM,32.0,30.2,93,29.83,2.5,SE,4.6,-,0.01,Snow,Light Snow,130,2003-01-05 09:29:00
4:37 AM,32.0,30.2,93,29.84,3.0,SE,3.5,-,0.01,Snow,Light Snow,140,2003-01-05 09:37:00
4:53 AM,32.0,30.9,96,29.85,2.5,SSE,4.6,-,0.01,Snow,Light Snow,150,2003-01-05 09:53:00
5:16 AM,32.0,30.2,93,29.84,3.0,Calm,Calm,-,0.00,,Overcast,0,2003-01-05 10:16:00
5:33 AM,32.0,30.2,93,29.84,4.0,Calm,Calm,-,0.00,,Overcast,0,2003-01-05 10:33:00
5:53 AM,32.0,30.9,96,29.86,4.0,Calm,Calm,-,0.00,,Overcast,0,2003-01-05 10:53:00
6:45 AM,30.2,30.2,100,29.85,4.0,Calm,Calm,-,N/A,,Overcast,0,2003-01-05 11:45:00
6:53 AM,30.9,30.9,100,29.87,3.0,Calm,Calm,-,N/A,,Overcast,0,2003-01-05 11:53:00
7:11 AM,32.0,30.2,93,29.85,3.0,Calm,Calm,-,N/A,,Overcast,0,2003-01-05 12:11:00
7:53 AM,32.0,32.0,100,29.88,3.0,Calm,Calm,-,N/A,,Overcast,0,2003-01-05 12:53:00
8:53 AM,33.1,32.0,96,29.91,4.0,Calm,Calm,-,N/A,,Overcast,0,2003-01-05 13:53:00
9:08 AM,33.8,32.0,93,29.89,4.0,Calm,Calm,-,N/A,,Overcast,0,2003-01-05 14:08:00
9:29 AM,33.8,32.0,93,29.89,5.0,Calm,Calm,-,N/A,,Overcast,0,2003-01-05 14:29:00
9:53 AM,34.0,32.0,92,29.92,4.0,West,3.5,-,N/A,,Overcast,260,2003-01-05 14:53:00
10:43 AM,33.8,32.0,93,29.92,2.5,West,3.5,-,0.00,,Overcast,280,2003-01-05 15:43:00
10:53 AM,34.0,32.0,92,29.94,2.5,West,4.6,-,0.00,,Overcast,280,2003-01-05 15:53:00
11:02 AM,33.8,33.8,100,29.92,2.0,WNW,3.5,-,0.00,Snow,Light Snow,290,2003-01-05 16:02:00
11:22 AM,35.6,33.8,93,29.91,3.0,West,5.8,-,0.00,,Overcast,270,2003-01-05 16:22:00
11:34 AM,35.6,33.8,93,29.91,4.0,West,5.8,-,0.00,,Overcast,260,2003-01-05 16:34:00
11:53 AM,35.1,33.1,92,29.94,4.0,WNW,6.9,-,0.00,,Overcast,290,2003-01-05 16:53:00
12:53 PM,34.0,33.1,96,29.94,2.5,West,9.2,-,0.00,,Overcast,280,2003-01-05 17:53:00
1:00 PM,33.8,33.8,100,29.93,2.0,West,11.5,-,N/A,,Overcast,270,2003-01-05 18:00:00
1:53 PM,34.0,33.1,96,29.94,2.5,West,8.1,-,N/A,,Overcast,270,2003-01-05 18:53:00
2:26 PM,35.6,33.8,93,29.93,3.0,West,8.1,-,N/A,,Overcast,260,2003-01-05 19:26:00
2:53 PM,35.1,33.1,92,29.96,4.0,West,8.1,-,N/A,,Overcast,280,2003-01-05 19:53:00
3:53 PM,35.1,33.1,92,29.98,3.0,West,8.1,-,N/A,,Overcast,260,2003-01-05 20:53:00
5:08 PM,35.6,33.8,93,29.99,4.0,West,8.1,-,N/A,,Overcast,270,2003-01-05 22:08:00
5:53 PM,35.1,33.1,92,30.03,5.0,West,6.9,-,N/A,,Overcast,270,2003-01-05 22:53:00
6:05 PM,35.6,33.8,93,30.01,5.0,West,5.8,-,N/A,,Overcast,280,2003-01-05 23:05:00
6:53 PM,34.0,33.1,96,30.05,4.0,West,9.2,-,N/A,,Overcast,270,2003-01-05 23:53:00
7:53 PM,34.0,32.0,92,30.06,3.0,West,8.1,-,N/A,,Overcast,280,2003-01-06 00:53:00
8:39 PM,33.8,32.0,93,30.05,4.0,West,6.9,-,N/A,,Overcast,280,2003-01-06 01:39:00
8:53 PM,34.0,32.0,92,30.08,5.0,West,8.1,-,N/A,,Overcast,270,2003-01-06 01:53:00
9:03 PM,33.8,32.0,93,30.06,3.0,West,6.9,-,N/A,,Overcast,270,2003-01-06 02:03:00
9:30 PM,33.8,32.0,93,30.06,5.0,West,6.9,-,N/A,,Overcast,270,2003-01-06 02:30:00
9:46 PM,33.8,32.0,93,30.06,4.0,West,6.9,-,N/A,,Overcast,260,2003-01-06 02:46:00
9:53 PM,33.1,32.0,96,30.08,4.0,West,6.9,-,N/A,,Overcast,280,2003-01-06 02:53:00
10:43 PM,33.8,32.0,93,30.07,3.0,West,10.4,-,N/A,,Overcast,270,2003-01-06 03:43:00
10:53 PM,33.1,32.0,96,30.09,5.0,West,11.5,-,N/A,,Overcast,270,2003-01-06 03:53:00
11:00 PM,33.8,32.0,93,30.07,4.0,West,10.4,-,N/A,,Overcast,270,2003-01-06 04:00:00
11:19 PM,33.8,32.0,93,30.07,4.0,West,11.5,-,N/A,,Overcast,270,2003-01-06 04:19:00
11:53 PM,33.1,32.0,96,30.09,3.0,WNW,8.1,-,N/A,,Overcast,290,2003-01-06 04:53:00